Weather History for Grand Forks AFB, ND

Change the Weather History Date:

Tuesday, March 4, 2014

  Actual Average Record
Temperature  
Mean Temperature -4 °F -  
Max Temperature 6 °F 21 °F 35 °F (2005)
Min Temperature -13 °F 4 °F -16 °F (2003)
Degree Days  
Heating Degree Days 68    
Moisture  
Dew Point -10 °F    
Average Humidity 80    
Maximum Humidity 85    
Minimum Humidity 70    
Precipitation  
Precipitation 0.00 in - - ()
Sea Level Pressure  
Sea Level Pressure 30.25 in    
Wind  
Wind Speed 4 mph (NNE)    
Max Wind Speed 10 mph    
Max Gust Speed -    
Visibility 7 miles    
Events Snow    
Averages and records for this station are not official NWS values.
T = Trace of Precipitation, MM = Missing Value Source: NWS Daily Summary

Daily Weather History Graph

Daily Weather History Graph

Search for Another Location

Airport:

Trip Planner

Search our weather history database for the weather conditions in past years. The results will help you decide how hot, cold, wet, or windy it might be!

Date:

Astronomy

Mar. 04, 2014 Rise Set
Actual Time 7:04 AM CST 6:18 PM CST
Civil Twilight 6:33 AM CST 6:49 PM CST
Nautical Twilight 5:57 AM CST 7:25 PM CST
Astronomical Twilight 5:21 AM CST 8:01 PM CST
Moon 8:33 AM CST (3/4) 10:48 PM CST (3/4)
Length of Visible Light 12h 16m
Length of Day
11h 14m
Waxing Crescent, 15% of the Moon is Illuminated
Mar 4
Waxing Crescent
Mar 8
First Quarter
Mar 16
Full
Mar 23
Last Quarter
Mar 30
New

Hourly Weather History & Observations

Time (CST) Temp. Windchill Dew Point Humidity Pressure Visibility Wind Dir Wind Speed Gust Speed Precip Events Conditions
12:08 AM -0.4 °F -10.4 °F -4.0 °F 85% 30.21 in 2.5 mi NE 4.6 mph - N/A   Haze
12:13 AM -0.4 °F -10.4 °F -5.8 °F 78% 30.20 in 1.8 mi NE 4.6 mph - N/A   Haze
12:18 AM -0.4 °F -10.4 °F -5.8 °F 78% 30.20 in 2.0 mi ENE 4.6 mph - N/A   Haze
12:23 AM -0.4 °F -10.4 °F -4.0 °F 85% 30.20 in 3.0 mi ENE 4.6 mph - N/A   Overcast
12:28 AM -0.4 °F -12.0 °F -4.0 °F 85% 30.19 in 3.0 mi ENE 5.8 mph - N/A   Haze
12:33 AM -0.4 °F -10.4 °F -5.8 °F 78% 30.20 in 1.8 mi ENE 4.6 mph - N/A   Haze
12:38 AM -2.2 °F -12.5 °F -5.8 °F 85% 30.20 in 1.2 mi ENE 4.6 mph - N/A   Haze
12:43 AM -0.4 °F -10.4 °F -5.8 °F 78% 30.19 in 1.5 mi ENE 4.6 mph - N/A   Haze
12:48 AM 1.4 °F -8.3 °F -2.2 °F 85% 30.19 in 3.0 mi ENE 4.6 mph - N/A   Overcast
12:58 AM 1.6 °F -6.0 °F -2.2 °F 84% 30.28 in 2.5 mi ENE 3.5 mph - N/A   Overcast
1:03 AM 1.4 °F -9.9 °F -2.2 °F 85% 30.19 in 1.8 mi East 5.8 mph - N/A   Overcast
1:08 AM -0.4 °F -10.4 °F -4.0 °F 85% 30.19 in 1.2 mi ENE 4.6 mph - N/A   Overcast
1:12 AM -2.2 °F -12.5 °F -5.8 °F 85% 30.19 in 1.5 mi ENE 4.6 mph - N/A   Haze
1:17 AM -4.0 °F -14.6 °F -7.6 °F 85% 30.19 in 2.0 mi ENE 4.6 mph - N/A   Haze
1:22 AM -4.0 °F -14.6 °F -7.6 °F 85% 30.20 in 1.8 mi ENE 4.6 mph - N/A   Haze
1:32 AM -4.0 °F -12.4 °F -7.6 °F 85% 30.20 in 1.5 mi NE 3.5 mph - N/A Snow Light Snow
1:37 AM -4.0 °F -12.4 °F -7.6 °F 85% 30.20 in 1.0 mi NE 3.5 mph - N/A Snow Light Snow
1:42 AM -4.0 °F -12.4 °F -9.4 °F 78% 30.20 in 0.8 mi NE 3.5 mph - N/A Snow Light Snow
1:47 AM -5.8 °F -14.5 °F -9.4 °F 84% 30.20 in 1.2 mi ENE 3.5 mph - N/A Snow Light Snow
1:52 AM -4.0 °F - -9.4 °F 78% 30.20 in 1.2 mi ENE 2.3 mph - N/A Snow Light Snow
1:57 AM -5.8 °F -14.5 °F -9.4 °F 84% 30.20 in 1.0 mi NE 3.5 mph - N/A Snow Light Snow
1:58 AM -5.4 °F -14.1 °F -10.1 °F 80% 30.30 in 1.0 mi NE 3.5 mph - 0.00 in Snow Light Snow
2:03 AM -5.8 °F -14.5 °F -11.2 °F 77% 30.21 in 1.0 mi NE 3.5 mph - N/A Snow Light Snow
2:08 AM -7.6 °F -16.5 °F -11.2 °F 84% 30.21 in 1.0 mi NNE 3.5 mph - N/A Snow Light Snow
2:12 AM -7.6 °F -16.5 °F -13.0 °F 77% 30.21 in 1.5 mi NNE 3.5 mph - N/A   Haze
2:17 AM -7.6 °F -16.5 °F -13.0 °F 77% 30.21 in 4.0 mi North 3.5 mph - N/A   Haze
2:22 AM -7.6 °F -16.5 °F -13.0 °F 77% 30.21 in 10.0 mi North 3.5 mph - N/A   Overcast
2:32 AM -9.4 °F -18.6 °F -13.0 °F 84% 30.21 in 10.0 mi North 3.5 mph - N/A   Overcast
2:47 AM -9.4 °F -20.9 °F -14.8 °F 77% 30.21 in 9.0 mi North 4.6 mph - N/A   Overcast
2:51 AM -9.4 °F -20.9 °F -14.8 °F 77% 30.21 in 8.0 mi North 4.6 mph - N/A Snow Light Snow
2:56 AM -9.4 °F -20.9 °F -14.8 °F 77% 30.21 in 8.0 mi North 4.6 mph - N/A Snow Light Snow
2:58 AM -9.4 °F -20.9 °F -14.8 °F 77% 30.31 in 8.0 mi North 4.6 mph - 0.00 in Snow Light Snow
3:07 AM -11.2 °F -20.6 °F -14.8 °F 84% 30.21 in 10.0 mi North 3.5 mph - N/A   Overcast
3:12 AM -11.2 °F - -16.6 °F 77% 30.21 in 6.0 mi NNW 2.3 mph - N/A Snow Light Snow
3:17 AM -11.2 °F - -16.6 °F 77% 30.21 in 5.0 mi NW 2.3 mph - N/A Snow Light Snow
3:22 AM -11.2 °F - -16.6 °F 77% 30.21 in 7.0 mi NNW 2.3 mph - N/A Snow Light Snow
3:27 AM -11.2 °F - -16.6 °F 77% 30.20 in 10.0 mi North 2.3 mph - N/A Snow Light Snow
3:32 AM -11.2 °F - -16.6 °F 77% 30.20 in 9.0 mi North 2.3 mph - N/A Snow Light Snow
3:37 AM -11.2 °F - -14.8 °F 84% 30.20 in 10.0 mi North 2.3 mph - N/A   Overcast
3:47 AM -11.2 °F -20.6 °F -14.8 °F 84% 30.21 in 10.0 mi North 3.5 mph - N/A   Overcast
3:57 AM -11.2 °F -20.6 °F -14.8 °F 84% 30.21 in 9.0 mi North 3.5 mph - N/A   Overcast
3:58 AM -10.7 °F -20.0 °F -15.9 °F 78% 30.31 in 9.0 mi North 3.5 mph - 0.00 in   Overcast
4:08 AM -11.2 °F -20.6 °F -16.6 °F 77% 30.22 in 9.0 mi North 3.5 mph - N/A   Overcast
4:23 AM -13.0 °F -22.7 °F -18.4 °F 77% 30.22 in 9.0 mi North 3.5 mph - N/A   Overcast
4:28 AM -13.0 °F -22.7 °F -18.4 °F 77% 30.22 in 9.0 mi North 3.5 mph - N/A   Overcast
4:36 AM -13.0 °F -22.7 °F -18.4 °F 77% 30.23 in 10.0 mi NNW 3.5 mph - N/A Snow Light Snow
4:56 AM -13.0 °F -28.6 °F -18.4 °F 77% 30.23 in 9.0 mi North 6.9 mph - N/A Snow Light Snow
4:58 AM -12.6 °F -28.2 °F -18.0 °F 77% 30.33 in 9.0 mi North 6.9 mph - 0.00 in Snow Light Snow
5:03 AM -11.2 °F -24.8 °F -16.6 °F 77% 30.23 in 10.0 mi North 5.8 mph - N/A Snow Light Snow
5:10 AM -11.2 °F -23.0 °F -16.6 °F 77% 30.22 in 9.0 mi North 4.6 mph - N/A   Overcast
5:20 AM -11.2 °F -20.6 °F -16.6 °F 77% 30.22 in 5.0 mi North 3.5 mph - N/A   Overcast
5:25 AM -11.2 °F - -16.6 °F 77% 30.22 in 5.0 mi North 2.3 mph - N/A   Haze
5:30 AM -11.2 °F -20.6 °F -14.8 °F 84% 30.23 in 7.0 mi North 3.5 mph - N/A Snow Light Snow
5:40 AM -11.2 °F -20.6 °F -16.6 °F 77% 30.21 in 4.0 mi NE 3.5 mph - N/A Snow Light Snow
5:52 AM -9.4 °F -20.9 °F -14.8 °F 77% 30.21 in 5.0 mi NNE 4.6 mph - N/A   Haze
5:57 AM -9.4 °F -18.6 °F -13.0 °F 84% 30.22 in 7.0 mi North 3.5 mph - N/A   Overcast
5:58 AM -9.0 °F -18.2 °F -14.1 °F 79% 30.32 in 7.0 mi North 3.5 mph - 0.00 in   Overcast
6:03 AM -7.6 °F - -13.0 °F 77% 30.21 in 8.0 mi North 2.3 mph - N/A   Overcast
6:18 AM -7.6 °F - -13.0 °F 77% 30.21 in 10.0 mi North 2.3 mph - N/A   Overcast
6:23 AM -7.6 °F -16.5 °F -13.0 °F 77% 30.21 in 10.0 mi North 3.5 mph - N/A   Overcast
6:48 AM -5.8 °F - -11.2 °F 77% 30.22 in 10.0 mi NW 2.3 mph - N/A   Overcast
6:53 AM -5.8 °F -14.5 °F -11.2 °F 77% 30.22 in 10.0 mi NW 3.5 mph - N/A   Overcast
6:58 AM -6.0 °F - -10.5 °F 81% 30.32 in 10.0 mi North 2.3 mph - N/A   Overcast
7:00 AM -5.8 °F - -11.2 °F 77% 30.22 in 10.0 mi NW 2.3 mph - N/A   Overcast
7:05 AM -5.8 °F -14.5 °F -11.2 °F 77% 30.23 in 10.0 mi NNW 3.5 mph - N/A   Overcast
7:10 AM -5.8 °F -14.5 °F -11.2 °F 77% 30.23 in 7.0 mi NNW 3.5 mph - N/A   Overcast
7:15 AM -5.8 °F -14.5 °F -11.2 °F 77% 30.23 in 6.0 mi North 3.5 mph - N/A   Haze
7:20 AM -5.8 °F -14.5 °F -11.2 °F 77% 30.23 in 10.0 mi North 3.5 mph - N/A   Overcast
7:23 AM -5.8 °F -16.7 °F -11.2 °F 77% 30.23 in 10.0 mi North 4.6 mph - N/A Snow Light Snow
7:28 AM -5.8 °F -16.7 °F -11.2 °F 77% 30.23 in 10.0 mi North 4.6 mph - N/A Snow Light Snow
7:33 AM -5.8 °F -16.7 °F -9.4 °F 84% 30.24 in 8.0 mi North 4.6 mph - N/A Snow Light Snow
7:38 AM -5.8 °F -16.7 °F -9.4 °F 84% 30.24 in 7.0 mi North 4.6 mph - N/A Snow Light Snow
7:48 AM -4.0 °F -14.6 °F -9.4 °F 78% 30.25 in 10.0 mi NNW 4.6 mph - N/A Snow Light Snow
7:49 AM -4.0 °F -14.6 °F -9.4 °F 78% 30.25 in 10.0 mi NNW 4.6 mph - N/A   Overcast
7:58 AM -4.2 °F -12.6 °F -8.7 °F 81% 30.35 in 10.0 mi North 3.5 mph - 0.00 in   Overcast
8:18 AM -4.0 °F -12.4 °F -7.6 °F 85% 30.24 in 10.0 mi NNE 3.5 mph - N/A   Mostly Cloudy
8:23 AM -4.0 °F -12.4 °F -7.6 °F 85% 30.24 in 10.0 mi NNE 3.5 mph - N/A   Mostly Cloudy
8:28 AM -4.0 °F - -7.6 °F 85% 30.24 in 6.0 mi NNE 2.3 mph - N/A   Haze
8:29 AM -4.0 °F - -7.6 °F 85% 30.24 in 3.0 mi North 2.3 mph - N/A Snow Light Snow
8:34 AM -4.0 °F - -7.6 °F 85% 30.25 in 0.8 mi North 2.3 mph - N/A Snow Light Snow
8:39 AM -2.2 °F - -7.6 °F 78% 30.25 in 0.5 mi North 2.3 mph - N/A Snow Snow
8:44 AM -2.2 °F - -7.6 °F 78% 30.25 in 0.8 mi NNW 2.3 mph - N/A Snow Light Snow
8:49 AM -2.2 °F - -7.6 °F 78% 30.25 in 1.5 mi NNW 2.3 mph - N/A Snow Light Snow
8:53 AM -2.2 °F - -5.8 °F 85% 30.26 in 6.0 mi NNW 2.3 mph - N/A   Haze
8:58 AM -2.4 °F - -6.5 °F 82% 30.35 in 9.0 mi Variable 2.3 mph - 0.00 in   Scattered Clouds
9:39 AM -0.4 °F -10.4 °F -5.8 °F 78% 30.26 in 10.0 mi NNE 4.6 mph - N/A Snow Light Snow
9:49 AM -0.4 °F -12.0 °F -4.0 °F 85% 30.26 in 10.0 mi North 5.8 mph - N/A   Partly Cloudy
9:52 AM -0.4 °F -13.4 °F -4.0 °F 85% 30.26 in 10.0 mi NNE 6.9 mph - N/A Snow Light Snow
9:58 AM -0.6 °F -14.9 °F -4.7 °F 83% 30.35 in 10.0 mi NNE 8.1 mph - 0.00 in Snow Light Snow
10:03 AM -0.4 °F -14.7 °F -4.0 °F 85% 30.25 in 10.0 mi NNE 8.1 mph - N/A   Clear
10:44 AM 1.4 °F -11.3 °F -2.2 °F 85% 30.26 in 10.0 mi NNE 6.9 mph - N/A   Partly Cloudy
10:55 AM 1.4 °F -11.3 °F -2.2 °F 85% 30.27 in 10.0 mi NNE 6.9 mph - N/A Snow Light Snow
10:58 AM 1.2 °F -11.5 °F -2.9 °F 83% 30.36 in 10.0 mi NNE 6.9 mph - 0.00 in Snow Light Snow
11:11 AM 1.4 °F -9.9 °F -2.2 °F 85% 30.27 in 10.0 mi NNE 5.8 mph - N/A   Scattered Clouds
11:58 AM 2.1 °F -9.0 °F -2.0 °F 83% 30.35 in 10.0 mi NNE 5.8 mph - 0.00 in   Clear
12:58 PM 4.5 °F -4.7 °F -1.7 °F 76% 30.36 in 10.0 mi NNE 4.6 mph - N/A   Clear
1:58 PM 6.1 °F -6.8 °F -1.1 °F 72% 30.35 in 10.0 mi NNE 8.1 mph - 0.00 in   Clear
2:58 PM 6.6 °F -6.1 °F -1.1 °F 71% 30.36 in 10.0 mi NNE 8.1 mph - 0.00 in   Clear
3:58 PM 5.9 °F -8.0 °F -1.3 °F 72% 30.37 in 10.0 mi North 9.2 mph - 0.00 in   Clear
4:58 PM 5.0 °F -8.1 °F -2.6 °F 71% 30.37 in 10.0 mi NNE 8.1 mph - N/A   Clear
5:58 PM 1.6 °F -14.2 °F -5.1 °F 74% 30.39 in 10.0 mi NNE 10.4 mph - N/A   Clear
6:58 PM -0.2 °F -15.5 °F -5.1 °F 80% 30.41 in 10.0 mi NNE 9.2 mph - N/A   Clear
7:58 PM -3.8 °F -18.8 °F -7.8 °F 83% 30.42 in 10.0 mi North 8.1 mph - N/A   Clear
8:58 PM -1.8 °F -13.7 °F -6.9 °F 79% 30.42 in 10.0 mi North 5.8 mph - N/A   Partly Cloudy
9:58 PM -0.9 °F -14.1 °F -8.0 °F 72% 30.44 in 10.0 mi North 6.9 mph - N/A   Mostly Cloudy
10:58 PM 0.3 °F -12.6 °F -7.2 °F 70% 30.45 in 10.0 mi North 6.9 mph - N/A   Overcast
11:58 PM -1.3 °F -13.1 °F -8.0 °F 73% 30.45 in 10.0 mi North 5.8 mph - N/A   Overcast